SKY MUSTER 1 (NBN1A)

Last updated on Sun Jun 21 2026 00:03:06 GMT+0000 (Coordinated Universal Time)

1 40940U 15054A 26171.20572738 .00000000 00000+0 00000+0 0 9991 2 40940 0.0222 347.9490 0001729 93.5687 41.2026 1.00270506 39297
UTC large
Height (km)
Speed (km/s)
/
Latitude / Longitude
Inclination (degrees)
Orbital Period (minutes)
Azimuth
Elevation
Range (km)
Doppler Factor

Next 0 passes for location: London (51.5072 / 0.1276)

No passes found over London.
SKY MUSTER 1 (NBN1A)